Flag for United Kingdom Weather past 2 weeks in Edinburgh, Scotland, United Kingdom

Now
59 °F

Scattered clouds.


Feels Like: 57 °F
Forecast: 47 / 58 °F
Wind: 9 mph from Northeast

Location: Edinburgh Airport

Current Time: Aug 31, 2015 at 5:31:12 PM

Latest Report: Aug 31, 2015 at 4:50 PM


Visibility: N/A

Pressure: 30.07 "Hg

Humidity: 72%

Dew point: 50 °F

Location of EdinburghLocation

Historic Weather in Edinburgh — Graph

°F

Edinburgh temperature yesterday

Maximum temperature yesterday: 64 °F (at 3:20 PM)
Minimum temperature yesterday: 48 °F (at 6:20 AM)
Average temperature yesterday: 56 °F

Past Weeks' High & Low Weather Summary

 TemperatureHumidityPressure
High75 °F (Aug 23, 1:20 PM)100% (Aug 17, 1:50 AM)30.12 "Hg (Aug 17, 1:50 AM)
Low39 °F (Aug 31, 6:20 AM)44% (Aug 23, 2:20 PM)29.27 "Hg (Aug 26, 11:20 AM)
Average59 °F79%29.80 "Hg
* Reported Aug 16 4:20 PM — Aug 31 4:20 PM, Edinburgh, Weather by CustomWeather, © 2015

Note: Actual official high and low records may vary slightly from our data, if they occured in-between our weather recording intervals... More about our weather records

Advertising

Edinburgh weather history for previous 24 hours

 ConditionsComfort  
Time TempWeatherWind HumidityBarometerVisibility
4:20 PM
Mon, Aug 31
59 °FScattered clouds.8 mph77%30.07 "HgN/A
3:50 PM61 °FScattered clouds.8 mph72%30.07 "HgN/A
3:20 PM61 °FScattered clouds.8 mph72%30.07 "HgN/A
2:50 PM61 °FScattered clouds.10 mph68%30.07 "HgN/A
2:20 PM61 °FScattered clouds.12 mph68%30.07 "HgN/A
1:50 PM63 °FPassing clouds.13 mph64%30.07 "HgN/A
1:20 PM63 °FPassing clouds.14 mph64%30.07 "HgN/A
12:50 PM63 °FPassing clouds.14 mph64%30.07 "HgN/A
12:20 PM61 °FPassing clouds.12 mph72%30.07 "HgN/A
11:50 AM61 °FScattered clouds.10 mph68%30.07 "HgN/A
11:20 AM61 °FPartly sunny.8 mph68%30.07 "HgN/A
10:50 AM59 °FPassing clouds.5 mph72%30.07 "HgN/A
10:20 AM57 °FPassing clouds.3 mph72%30.07 "HgN/A
9:50 AM55 °FSunny.2 mph88%30.07 "Hg10 mi
9:20 AM55 °FPassing clouds.3 mph82%30.07 "HgN/A
8:50 AM52 °FPassing clouds.5 mph94%30.07 "HgN/A
8:20 AM52 °FSunny.5 mph94%30.07 "Hg10 mi
7:50 AM48 °FSunny.5 mph100%30.07 "Hg10 mi
7:20 AM45 °FSunny.2 mph100%30.07 "Hg10 mi
6:50 AM43 °FClear.3 mph100%30.07 "Hg10 mi
6:20 AM39 °FFog.2 mph100%30.07 "HgN/A
5:50 AM41 °FLight fog.No wind100%30.07 "HgN/A
5:20 AM43 °FLight fog.2 mph93%30.07 "HgN/A
4:50 AM43 °FClear.No wind100%30.07 "Hg10 mi
4:20 AM43 °FClear.No wind100%30.07 "Hg10 mi
3:50 AM43 °FClear.No wind100%30.07 "Hg10 mi
3:20 AM45 °FClear.2 mph100%30.07 "Hg10 mi
2:50 AM45 °FClear.2 mph100%30.07 "Hg10 mi
2:20 AM48 °FClear.2 mph94%30.07 "Hg10 mi
1:50 AM50 °FClear.3 mph88%30.07 "Hg10 mi
1:20 AM48 °FClear.3 mph94%30.07 "Hg10 mi
12:50 AM50 °FClear.2 mph94%30.07 "Hg10 mi
12:20 AM48 °FClear.No wind94%30.07 "Hg10 mi
11:50 PM
Sun, Aug 30
48 °FClear.6 mph94%30.09 "Hg10 mi
11:20 PM48 °FClear.6 mph94%30.09 "Hg10 mi
10:20 PM54 °FCool.5 mph82%30.09 "HgN/A
9:50 PM55 °FPassing clouds.5 mph82%30.09 "HgN/A
9:20 PM54 °FPassing clouds.7 mph82%30.09 "HgN/A
8:20 PM55 °FPassing clouds.5 mph82%30.09 "HgN/A
7:50 PM57 °FPassing clouds.3 mph77%30.07 "HgN/A
7:20 PM61 °FPassing clouds.9 mph63%30.07 "HgN/A
6:50 PM61 °FPassing clouds.8 mph68%30.07 "HgN/A
6:20 PM61 °FScattered clouds.7 mph68%30.07 "HgN/A
5:50 PM64 °FScattered clouds.8 mph56%30.07 "HgN/A
5:20 PM63 °FScattered clouds.8 mph56%30.07 "HgN/A
Weather by CustomWeather, © 2015

See weather overviewHow to use our weather pages